Regional Weather Roundup
Issued by NWS

Home | Current Version | Previous Version | Graphics & Text | Print | Product List | Glossary On
Versions: 1 2 3 4 5 6 7 8 9 10 11 12 13 14 15 16 17 18 19 20 21 22 23 24 25 26 27 28 29 30 31 32 33 34 35 36 37 38 39 40 41 42 43 44 45 46
000
ASUS43 KDMX 131607
RWRIA

WEATHER ROUNDUP FOR IOWA
NATIONAL WEATHER SERVICE DES MOINES IA
1100 AM CDT SUN JUL 13 2014

NOTE: "FAIR" INDICATES FEW OR NO CLOUDS BELOW 12,000 FEET WITH NO
SIGNIFICANT WEATHER AND/OR OBSTRUCTIONS TO VISIBILITY.

* - THESE STATIONS ARE NOT NWS STATIONS...THUS NOT UNDER NWS
QUALITY CONTROL.  THEY ALSO DO NOT REPORT WEATHER SUCH
AS PRECIPITATION OR FOG.

IAZ001>003-012>014-020>022-031>034-043>046-131700-
   NORTHWEST IOWA

CITY           SKY/WX    TMP DP  RH WIND       PRES   REMARKS
CARROLL *      SUNNY     79  70  73 W9        30.04S HX  81
CHEROKEE *     PTSUNNY   77  70  78 NW7       30.04S
DENISON *      SUNNY     79  72  78 NW8       30.03F HX  82
LE MARS *      MOSUNNY   77  66  69 NW5       30.05F
ORANGE CITY *  SUNNY     75  64  69 NW3       30.06R
SHELDON *      MOSUNNY   75  66  73 VRB3      30.04F
SIOUX CITY     SUNNY     79  68  69 NW10      30.05S HX  81
SPENCER        SUNNY     76  63  64 NW7       30.04F
STORM LAKE *   PTSUNNY   77  73  88 NW10      30.05F
$$

IAZ055>058-069>071-079>083-090>094-131700-
   SOUTHWEST IOWA

CITY           SKY/WX    TMP DP  RH WIND       PRES   REMARKS
ATLANTIC *     SUNNY     79  68  69 NW6G13    30.04F HX  81
AUDUBON *      SUNNY     82  73  74 NW7       30.06S HX  88
CLARINDA *     MOSUNNY   79  72  78 NW6       30.06F HX  82
COUNCIL BLFS * SUNNY     81  70  69 NW6       30.05S HX  84
CRESTON *      MOSUNNY   79  70  73 NW9       30.05F HX  81
HARLAN  *      SUNNY     79  68  69 W9        30.08F HX  81
LAMONI         SUNNY     79  69  71 NW8       30.04S HX  81
RED OAK *      MOSUNNY   81  70  69 N8        30.05F HX  84
SHENANDOAH *   MOSUNNY   81  70  69 N5        30.05F HX  84
$$

IAZ047>049-059>061-072>074-084-131700-
   CENTRAL IOWA

CITY           SKY/WX    TMP DP  RH WIND       PRES   REMARKS
AMES           MOSUNNY   79  71  76 W9        30.02S HX  82
ANKENY *       SUNNY     79  70  73 VRB6G13   30.01F HX  81
CHARITON *     MOSUNNY   77  70  78 NW8       30.03S
DES MOINES     MOSUNNY   81  69  67 W7        30.01F HX  84
GRINNELL*      MOSUNNY   77  70  78 W6        30.02F
KNOXVILLE *    MOSUNNY   77  70  78 NW7       30.01F
MARSHALLTOWN   SUNNY     77  70  79 NW12      30.01S
PELLA *        SUNNY     77  72  83 NW8       30.03F
PERRY *          N/A     79  68  69 NW6       30.03F HX  81
$$

IAZ004>006-015-016-023>025-035-036-131700-
   NORTH CENTRAL IOWA

CITY           SKY/WX    TMP DP  RH WIND       PRES   REMARKS
ALGONA *       SUNNY     75  63  64 NW8       30.03S
CLARION *      MOSUNNY   77  66  69 NW9G15    30.02S
ESTHERVILLE    SUNNY     74  58  57 NW10      30.03S
FORT DODGE *   CLOUDY    77  68  73 NW9       30.03F
MASON CITY     SUNNY     76  65  68 W12       30.02S
FOREST CITY *  SUNNY     73  63  68 NW9       30.01F
IOWA FALLS *     N/A     77  68  73 W10       30.03S
$$

IAZ007>011-017>019-026>030-037>042-050>054-066-131700-
   NORTHEAST IOWA

CITY           SKY/WX    TMP DP  RH WIND       PRES   REMARKS
CEDAR RAPIDS   PTSUNNY   77  69  76 W8        29.99F
CHARLES CITY * MOSUNNY   75  66  73 W13       30.00S
CLINTON *      MOSUNNY   73  70  88 W7        30.01S
DECORAH *        N/A    N/A N/A N/A MISG        N/A
DUBUQUE        SUNNY     74  67  78 W12       29.98F
MONTICELLO *   MOSUNNY   77  68  73 W8G14     29.99S
OELWEIN *      CLOUDY    75  75 100 W9G17     30.00S
WATERLOO       PTSUNNY   78  68  71 W14       29.98F HX  80
$$

IAZ064-065-067-068-078-131700-
   EAST CENTRAL IOWA

CITY           SKY/WX    TMP DP  RH WIND       PRES   REMARKS
DAVENPORT        N/A     75  67  76 W8        30.00S
IOWA CITY      SUNNY     75  68  78 W7        30.01S
MT. PLEASANT * MOSUNNY   73  66  78 CALM      30.01S
MUSCATINE *    MOSUNNY   75  68  78 NW8       29.99F
QUAD CITIES    MOSUNNY   76  67  73 W5        29.98F
$$

IAZ062-063-075>077-085>089-095>099-131700-
   SOUTHEAST IOWA

CITY           SKY/WX    TMP DP  RH WIND       PRES   REMARKS
BURLINGTON     PTSUNNY   73  68  84 VRB5      30.00F
FAIRFIELD *    MOSUNNY   77  68  73 NW6       30.01F
FORT MADISON * CLOUDY    75  70  83 NW6       30.01F
KEOKUK *       CLOUDY    73  70  88 NW7       29.99F
OSKALOOSA *      N/A     77  70  78 NW5       30.02S
CENTERVILLE *  SUNNY     77  72  83 N6        30.04S
OTTUMWA        SUNNY     78  69  73 NW7       30.01F HX  80
WASHINGTON *   SUNNY     75  70  83 NW6       30.00F
$$

ABBREVIATIONS USED IN REMARKS
   TC - TEMPERATURES IN CELSIUS
  WCI - WIND CHILL INDEX
   HX - HEAT INDEX
  VSB - VISIBILITY
$$




USA.gov is the U.S. government's official web portal to all federal, state and local government web resources and services.